Time,TemperatureF,DewpointF,PressureIn,WindDirection,WindDirectionDegrees,WindSpeedMPH,WindSpeedGustMPH,Humidity,HourlyPrecipIn,Conditions,Clouds,dailyrainin,SoftwareType,DateUTC
2013-09-05 00:01:00,62.2,58.6,30.04,ESE,114,0.0,0.0,88,0.08,,SKC,0.00,VWS V13.01,2013-09-05 04:01:00,
2013-09-05 00:06:00,61.8,58.2,30.05,ESE,114,0.0,0.0,88,0.08,,SKC,0.00,VWS V13.01,2013-09-05 04:06:00,
2013-09-05 00:11:00,61.8,58.2,30.05,ESE,114,0.0,0.0,88,0.12,,SKC,0.04,VWS V13.01,2013-09-05 04:11:00,
2013-09-05 00:16:00,61.7,58.1,30.05,ESE,114,0.0,0.0,88,0.12,,SKC,0.04,VWS V13.01,2013-09-05 04:16:00,
2013-09-05 00:21:00,61.5,57.9,30.05,ESE,114,0.0,0.0,88,0.14,,SKC,0.06,VWS V13.01,2013-09-05 04:21:00,
2013-09-05 00:26:00,61.5,57.9,30.05,ESE,114,0.0,0.0,88,0.16,,SKC,0.08,VWS V13.01,2013-09-05 04:26:00,
2013-09-05 00:31:00,61.5,57.9,30.04,SE,136,0.0,0.0,88,0.16,,SKC,0.08,VWS V13.01,2013-09-05 04:31:00,
2013-09-05 00:36:00,61.5,57.9,30.04,SE,136,0.0,0.0,88,0.18,,SKC,0.10,VWS V13.01,2013-09-05 04:36:00,
2013-09-05 00:41:00,61.5,57.9,30.04,SE,136,0.0,0.0,88,0.18,,SKC,0.10,VWS V13.01,2013-09-05 04:41:00,
2013-09-05 00:46:00,61.5,57.9,30.04,SE,136,0.0,0.0,88,0.18,,SKC,0.10,VWS V13.01,2013-09-05 04:46:00,
2013-09-05 00:51:00,61.3,57.7,30.03,SE,136,0.0,0.0,88,0.16,,SKC,0.12,VWS V13.01,2013-09-05 04:51:00,
2013-09-05 00:56:00,61.3,57.7,30.04,SSE,158,0.0,0.0,88,0.12,,SKC,0.12,VWS V13.01,2013-09-05 04:56:00,
2013-09-05 01:01:00,61.1,57.5,30.04,SSE,158,0.0,0.0,88,0.12,,SKC,0.12,VWS V13.01,2013-09-05 05:01:00,
2013-09-05 01:06:00,61.1,57.5,30.04,SSE,158,0.0,0.0,88,0.12,,SKC,0.12,VWS V13.01,2013-09-05 05:06:00,
2013-09-05 01:11:00,61.1,57.5,30.04,SSE,158,0.0,0.0,88,0.12,,SKC,0.12,VWS V13.01,2013-09-05 05:11:00,
2013-09-05 01:16:00,61.1,57.8,30.04,SSE,158,0.0,0.0,89,0.08,,SKC,0.12,VWS V13.01,2013-09-05 05:16:00,
2013-09-05 01:21:00,61.1,57.8,30.04,SSE,158,0.0,0.0,89,0.08,,SKC,0.12,VWS V13.01,2013-09-05 05:21:00,
2013-09-05 01:26:00,61.1,57.8,30.04,SSE,158,0.0,0.0,89,0.06,,SKC,0.12,VWS V13.01,2013-09-05 05:26:00,
2013-09-05 01:31:00,61.1,57.8,30.04,SSE,158,0.0,0.0,89,0.06,,SKC,0.12,VWS V13.01,2013-09-05 05:31:00,
2013-09-05 01:36:00,61.1,57.8,30.04,SSE,158,0.0,0.0,89,0.04,,SKC,0.12,VWS V13.01,2013-09-05 05:36:00,
2013-09-05 01:41:00,61.1,57.8,30.04,SSE,158,0.0,0.0,89,0.02,,SKC,0.12,VWS V13.01,2013-09-05 05:41:00,
2013-09-05 01:46:00,61.1,57.8,30.04,SSE,158,0.0,0.0,89,0.02,,SKC,0.12,VWS V13.01,2013-09-05 05:46:00,
2013-09-05 01:51:00,61.1,57.8,30.04,SSE,158,0.0,0.0,89,0.02,,SKC,0.12,VWS V13.01,2013-09-05 05:51:00,
2013-09-05 01:56:00,61.1,57.8,30.03,SSE,158,0.0,0.0,89,0.00,,SKC,0.12,VWS V13.01,2013-09-05 05:56:00,
2013-09-05 02:01:00,61.1,57.8,30.03,SSE,158,0.0,0.0,89,0.00,,SKC,0.12,VWS V13.01,2013-09-05 06:01:00,
2013-09-05 02:06:00,60.9,57.6,30.03,SSE,158,0.0,0.0,89,0.00,,SKC,0.12,VWS V13.01,2013-09-05 06:06:00,
2013-09-05 02:11:00,60.9,57.6,30.03,SSE,158,0.0,0.0,89,0.00,,SKC,0.12,VWS V13.01,2013-09-05 06:11:00,
2013-09-05 02:16:00,60.9,57.6,30.03,SSE,158,0.0,0.0,89,0.00,,SKC,0.12,VWS V13.01,2013-09-05 06:16:00,
2013-09-05 02:21:00,60.9,57.6,30.03,SSE,158,0.0,0.0,89,0.00,,SKC,0.12,VWS V13.01,2013-09-05 06:21:00,
2013-09-05 02:26:00,60.9,57.6,30.03,SSE,158,0.0,0.0,89,0.00,,SKC,0.12,VWS V13.01,2013-09-05 06:26:00,
2013-09-05 02:31:00,60.6,57.3,30.03,SSE,158,0.0,0.0,89,0.00,,SKC,0.12,VWS V13.01,2013-09-05 06:31:00,
2013-09-05 02:37:00,60.6,57.3,30.04,WSW,248,0.0,0.0,89,0.00,,SKC,0.12,VWS V13.01,2013-09-05 06:37:00,
2013-09-05 02:41:00,60.4,57.2,30.04,WSW,248,0.0,0.0,89,0.00,,SKC,0.12,VWS V13.01,2013-09-05 06:41:00,
2013-09-05 02:47:00,60.4,56.8,30.04,WSW,248,0.0,0.0,88,0.00,,SKC,0.12,VWS V13.01,2013-09-05 06:47:00,
2013-09-05 02:52:00,60.0,56.4,30.04,WSW,248,0.0,0.0,88,0.00,,SKC,0.12,VWS V13.01,2013-09-05 06:52:00,
2013-09-05 02:57:00,59.9,56.3,30.04,WSW,248,0.0,0.0,88,0.00,,SKC,0.12,VWS V13.01,2013-09-05 06:57:00,
2013-09-05 03:02:00,59.7,55.8,30.05,NW,316,0.0,0.0,87,0.00,,SKC,0.12,VWS V13.01,2013-09-05 07:02:00,
2013-09-05 03:07:00,59.5,55.6,30.06,NNW,338,1.5,1.5,87,0.00,,SKC,0.12,VWS V13.01,2013-09-05 07:07:00,
2013-09-05 03:12:00,59.3,55.4,30.05,WNW,294,1.3,1.3,87,0.00,,SKC,0.12,VWS V13.01,2013-09-05 07:12:00,
2013-09-05 03:17:00,58.8,54.3,30.05,SW,226,0.0,0.0,85,0.00,,SKC,0.12,VWS V13.01,2013-09-05 07:17:00,
2013-09-05 03:22:00,58.8,54.3,30.06,NW,316,0.0,0.0,85,0.00,,SKC,0.12,VWS V13.01,2013-09-05 07:22:00,
2013-09-05 03:27:00,58.6,53.8,30.06,NW,316,0.0,0.0,84,0.00,,SKC,0.12,VWS V13.01,2013-09-05 07:27:00,
2013-09-05 03:32:00,58.2,53.1,30.06,West,271,0.0,0.0,83,0.00,,SKC,0.12,VWS V13.01,2013-09-05 07:32:00,
2013-09-05 03:37:00,57.9,52.5,30.06,NW,316,0.0,0.0,82,0.00,,SKC,0.12,VWS V13.01,2013-09-05 07:37:00,
2013-09-05 03:42:00,57.7,52.6,30.06,NNW,338,0.0,0.0,83,0.00,,SKC,0.12,VWS V13.01,2013-09-05 07:42:00,
2013-09-05 03:47:00,57.7,52.6,30.06,NNW,338,0.0,0.0,83,0.00,,SKC,0.12,VWS V13.01,2013-09-05 07:47:00,
2013-09-05 03:52:00,57.5,52.4,30.06,NW,316,0.0,0.0,83,0.00,,SKC,0.12,VWS V13.01,2013-09-05 07:52:00,
2013-09-05 03:57:00,57.3,51.9,30.06,WNW,294,0.0,1.5,82,0.00,,SKC,0.12,VWS V13.01,2013-09-05 07:57:00,
2013-09-05 04:02:00,57.3,51.5,30.06,WNW,294,0.0,0.0,81,0.00,,SKC,0.12,VWS V13.01,2013-09-05 08:02:00,
2013-09-05 04:07:00,57.3,51.5,30.06,NW,316,0.0,0.0,81,0.00,,SKC,0.12,VWS V13.01,2013-09-05 08:07:00,
2013-09-05 04:12:00,57.0,50.9,30.07,NNW,338,0.0,0.0,80,0.00,,SKC,0.12,VWS V13.01,2013-09-05 08:12:00,
2013-09-05 04:17:00,57.0,50.9,30.07,NW,316,0.0,0.0,80,0.00,,SKC,0.12,VWS V13.01,2013-09-05 08:17:00,
2013-09-05 04:22:00,57.0,50.9,30.08,NW,316,0.0,0.0,80,0.00,,SKC,0.12,VWS V13.01,2013-09-05 08:22:00,
2013-09-05 04:27:00,56.8,50.7,30.08,NW,316,0.0,0.0,80,0.00,,SKC,0.12,VWS V13.01,2013-09-05 08:27:00,
2013-09-05 04:32:00,56.8,50.4,30.07,NW,316,0.0,0.0,79,0.00,,SKC,0.12,VWS V13.01,2013-09-05 08:32:00,
2013-09-05 04:37:00,56.4,50.0,30.08,NW,316,0.0,0.0,79,0.00,,SKC,0.12,VWS V13.01,2013-09-05 08:37:00,
2013-09-05 04:42:00,56.4,50.0,30.07,NW,316,0.0,0.0,79,0.00,,SKC,0.12,VWS V13.01,2013-09-05 08:42:00,
2013-09-05 04:47:00,56.3,49.9,30.07,NW,316,0.0,0.0,79,0.00,,SKC,0.12,VWS V13.01,2013-09-05 08:47:00,
2013-09-05 04:52:00,56.1,50.0,30.07,NW,316,0.0,0.0,80,0.00,,SKC,0.12,VWS V13.01,2013-09-05 08:52:00,
2013-09-05 04:57:00,55.7,49.6,30.08,NW,316,0.0,0.0,80,0.00,,SKC,0.12,VWS V13.01,2013-09-05 08:57:00,
2013-09-05 05:02:00,55.5,49.4,30.08,NW,316,0.4,0.4,80,0.00,,SKC,0.12,VWS V13.01,2013-09-05 09:02:00,
2013-09-05 05:07:00,55.5,49.4,30.08,NW,316,0.0,0.0,80,0.00,,SKC,0.12,VWS V13.01,2013-09-05 09:07:00,
2013-09-05 05:12:00,55.5,49.4,30.09,NW,316,0.0,0.0,80,0.00,,SKC,0.12,VWS V13.01,2013-09-05 09:12:00,
2013-09-05 05:17:00,55.5,49.1,30.10,NNW,338,0.0,0.0,79,0.00,,SKC,0.12,VWS V13.01,2013-09-05 09:17:00,
2013-09-05 05:22:00,55.5,49.1,30.10,NNW,338,0.0,0.0,79,0.00,,SKC,0.12,VWS V13.01,2013-09-05 09:22:00,
2013-09-05 05:27:00,55.5,49.1,30.10,NNW,338,0.0,0.0,79,0.00,,SKC,0.12,VWS V13.01,2013-09-05 09:27:00,
2013-09-05 05:32:00,55.5,49.1,30.11,NW,316,0.0,0.0,79,0.00,,SKC,0.12,VWS V13.01,2013-09-05 09:32:00,
2013-09-05 05:37:00,55.5,49.1,30.11,NW,316,0.0,0.0,79,0.00,,SKC,0.12,VWS V13.01,2013-09-05 09:37:00,
2013-09-05 05:42:00,55.5,49.4,30.11,NNW,338,0.0,0.0,80,0.00,,SKC,0.12,VWS V13.01,2013-09-05 09:42:00,
2013-09-05 05:47:00,55.7,49.3,30.12,NW,316,1.1,1.1,79,0.00,,SKC,0.12,VWS V13.01,2013-09-05 09:47:00,
2013-09-05 05:52:00,55.7,49.6,30.12,WNW,294,1.1,1.1,80,0.00,,SKC,0.12,VWS V13.01,2013-09-05 09:52:00,
2013-09-05 05:57:00,55.7,49.3,30.12,NW,316,0.0,0.0,79,0.00,,SKC,0.12,VWS V13.01,2013-09-05 09:57:00,
2013-09-05 06:02:00,55.9,49.5,30.11,WNW,294,0.0,0.0,79,0.00,,SKC,0.12,VWS V13.01,2013-09-05 10:02:00,
2013-09-05 06:07:00,55.7,49.3,30.13,SW,226,0.0,0.0,79,0.00,,SKC,0.12,VWS V13.01,2013-09-05 10:07:00,
2013-09-05 06:12:00,55.7,49.3,30.14,NW,316,0.0,0.0,79,0.00,,SKC,0.12,VWS V13.01,2013-09-05 10:12:00,
2013-09-05 06:17:00,55.5,49.1,30.14,WNW,294,1.7,1.7,79,0.00,,SKC,0.12,VWS V13.01,2013-09-05 10:17:00,
2013-09-05 06:22:00,55.5,48.8,30.14,NW,316,0.0,3.1,78,0.00,,SKC,0.12,VWS V13.01,2013-09-05 10:22:00,
2013-09-05 06:27:00,55.5,48.8,30.14,NW,316,0.0,0.0,78,0.00,,SKC,0.12,VWS V13.01,2013-09-05 10:27:00,
2013-09-05 06:32:00,55.5,48.8,30.14,NW,316,0.0,0.0,78,0.00,,SKC,0.12,VWS V13.01,2013-09-05 10:32:00,
2013-09-05 06:37:00,55.4,48.7,30.14,NW,316,0.0,0.0,78,0.00,,SKC,0.12,VWS V13.01,2013-09-05 10:37:00,
2013-09-05 06:42:00,55.4,48.7,30.14,NW,316,0.0,0.0,78,0.00,,SKC,0.12,VWS V13.01,2013-09-05 10:42:00,
2013-09-05 06:47:00,55.4,48.7,30.14,NW,316,0.0,0.0,78,0.00,,SKC,0.12,VWS V13.01,2013-09-05 10:47:00,
2013-09-05 06:52:00,55.2,48.8,30.15,NW,316,0.0,0.0,79,0.00,,SKC,0.12,VWS V13.01,2013-09-05 10:52:00,
2013-09-05 06:57:00,55.2,48.8,30.14,NW,316,0.0,0.0,79,0.00,,SKC,0.12,VWS V13.01,2013-09-05 10:57:00,
2013-09-05 07:02:00,55.2,49.2,30.14,NW,316,0.0,0.0,80,0.00,,SKC,0.12,VWS V13.01,2013-09-05 11:02:00,
2013-09-05 07:07:00,55.0,49.0,30.14,NW,316,0.0,0.0,80,0.00,,SKC,0.12,VWS V13.01,2013-09-05 11:07:00,
2013-09-05 07:12:00,55.0,49.0,30.15,NW,316,0.0,0.0,80,0.00,,SKC,0.12,VWS V13.01,2013-09-05 11:12:00,
2013-09-05 07:17:00,55.0,49.0,30.15,NW,316,0.0,0.0,80,0.00,,SKC,0.12,VWS V13.01,2013-09-05 11:17:00,
2013-09-05 07:22:00,54.8,48.8,30.15,NW,316,0.0,0.0,80,0.00,,SKC,0.12,VWS V13.01,2013-09-05 11:22:00,
2013-09-05 07:27:00,54.6,48.9,30.15,NW,316,0.0,0.0,81,0.00,,SKC,0.12,VWS V13.01,2013-09-05 11:27:00,
2013-09-05 07:32:00,54.6,48.9,30.15,NW,316,0.0,0.0,81,0.00,,SKC,0.12,VWS V13.01,2013-09-05 11:32:00,
2013-09-05 07:37:00,54.6,48.6,30.16,NW,316,0.0,0.0,80,0.00,,SKC,0.12,VWS V13.01,2013-09-05 11:37:00,
2013-09-05 07:42:00,54.8,48.8,30.16,NW,316,0.0,0.0,80,0.00,,SKC,0.12,VWS V13.01,2013-09-05 11:42:00,
2013-09-05 07:47:00,55.0,49.0,30.15,NW,316,0.0,0.0,80,0.00,,SKC,0.12,VWS V13.01,2013-09-05 11:47:00,
2013-09-05 07:52:00,55.2,49.2,30.16,NW,316,0.0,0.0,80,0.00,,SKC,0.12,VWS V13.01,2013-09-05 11:52:00,
2013-09-05 07:57:00,55.2,49.2,30.15,NW,316,0.0,0.0,80,0.00,,SKC,0.12,VWS V13.01,2013-09-05 11:57:00,
2013-09-05 08:02:00,55.2,49.2,30.15,NW,316,0.0,0.0,80,0.00,,SKC,0.12,VWS V13.01,2013-09-05 12:02:00,
2013-09-05 08:07:00,55.2,49.2,30.16,NW,316,0.0,0.0,80,0.00,,SKC,0.12,VWS V13.01,2013-09-05 12:07:00,
2013-09-05 08:12:00,55.0,49.0,30.16,NW,316,0.0,0.0,80,0.00,,SKC,0.12,VWS V13.01,2013-09-05 12:12:00,
2013-09-05 08:17:00,54.8,49.1,30.16,NW,316,0.0,0.0,81,0.00,,SKC,0.12,VWS V13.01,2013-09-05 12:17:00,
2013-09-05 08:22:00,54.6,48.9,30.17,NW,316,0.0,0.0,81,0.00,,SKC,0.12,VWS V13.01,2013-09-05 12:22:00,
2013-09-05 08:27:00,55.2,49.2,30.16,NNW,338,0.0,0.0,80,0.00,,SKC,0.12,VWS V13.01,2013-09-05 12:27:00,
2013-09-05 08:32:00,55.5,49.1,30.17,NW,316,3.3,3.3,79,0.00,,SKC,0.12,VWS V13.01,2013-09-05 12:32:00,
2013-09-05 08:37:00,56.1,49.7,30.17,NNW,338,0.0,0.0,79,0.00,,SKC,0.12,VWS V13.01,2013-09-05 12:37:00,
2013-09-05 08:42:00,56.4,49.6,30.17,NNW,338,2.4,2.4,78,0.00,,SKC,0.12,VWS V13.01,2013-09-05 12:42:00,
2013-09-05 08:47:00,57.3,50.5,30.17,NE,46,0.0,0.0,78,0.00,,SKC,0.12,VWS V13.01,2013-09-05 12:47:00,
2013-09-05 08:52:00,57.9,50.4,30.17,NW,316,0.0,0.0,76,0.00,,SKC,0.12,VWS V13.01,2013-09-05 12:52:00,
2013-09-05 08:57:00,58.2,51.0,30.17,NW,316,0.0,0.0,77,0.00,,SKC,0.12,VWS V13.01,2013-09-05 12:57:00,
2013-09-05 09:02:00,58.6,50.7,30.17,NW,316,0.0,0.0,75,0.00,,SKC,0.12,VWS V13.01,2013-09-05 13:02:00,
2013-09-05 09:07:00,58.8,50.9,30.17,WNW,294,0.0,0.0,75,0.00,,SKC,0.12,VWS V13.01,2013-09-05 13:07:00,
2013-09-05 09:12:00,58.8,50.9,30.17,WNW,294,0.0,0.0,75,0.00,,SKC,0.12,VWS V13.01,2013-09-05 13:12:00,
2013-09-05 09:17:00,58.8,50.9,30.17,WNW,294,0.0,0.0,75,0.00,,SKC,0.12,VWS V13.01,2013-09-05 13:17:00,
2013-09-05 09:22:00,58.8,50.9,30.17,South,181,0.0,0.0,75,0.00,,SKC,0.12,VWS V13.01,2013-09-05 13:22:00,
2013-09-05 09:27:00,59.3,51.4,30.17,North,1,0.0,0.0,75,0.00,,SKC,0.12,VWS V13.01,2013-09-05 13:27:00,
2013-09-05 09:32:00,60.2,51.5,30.17,NNW,338,1.7,1.7,73,0.00,,SKC,0.12,VWS V13.01,2013-09-05 13:32:00,
2013-09-05 09:37:00,60.6,50.8,30.17,NNW,338,4.4,4.4,70,0.00,,SKC,0.12,VWS V13.01,2013-09-05 13:37:00,
2013-09-05 09:42:00,60.0,49.8,30.18,North,1,0.4,0.4,69,0.00,,SKC,0.12,VWS V13.01,2013-09-05 13:42:00,
2013-09-05 09:47:00,59.5,49.3,30.18,ENE,68,0.0,0.0,69,0.00,,SKC,0.12,VWS V13.01,2013-09-05 13:47:00,
2013-09-05 09:52:00,59.5,49.3,30.18,NW,316,0.0,0.0,69,0.00,,SKC,0.12,VWS V13.01,2013-09-05 13:52:00,
2013-09-05 09:57:00,60.0,49.8,30.18,ENE,68,2.9,2.9,69,0.00,,SKC,0.12,VWS V13.01,2013-09-05 13:57:00,
2013-09-05 10:02:00,60.4,49.0,30.18,NW,316,0.4,0.4,66,0.00,,SKC,0.12,VWS V13.01,2013-09-05 14:02:00,
2013-09-05 10:07:00,60.6,48.4,30.18,West,271,0.0,1.1,64,0.00,,SKC,0.12,VWS V13.01,2013-09-05 14:07:00,
2013-09-05 10:12:00,60.8,48.6,30.18,WNW,294,5.3,5.3,64,0.00,,SKC,0.12,VWS V13.01,2013-09-05 14:12:00,
2013-09-05 10:17:00,60.6,48.4,30.18,WNW,294,1.7,1.7,64,0.00,,SKC,0.12,VWS V13.01,2013-09-05 14:17:00,
2013-09-05 10:22:00,60.6,48.0,30.18,NNW,338,1.3,1.3,63,0.00,,SKC,0.12,VWS V13.01,2013-09-05 14:22:00,
2013-09-05 10:27:00,60.6,47.1,30.19,North,1,3.3,4.0,61,0.00,,SKC,0.12,VWS V13.01,2013-09-05 14:27:00,
2013-09-05 10:32:00,60.6,46.7,30.19,West,271,0.8,0.8,60,0.00,,SKC,0.12,VWS V13.01,2013-09-05 14:32:00,
2013-09-05 10:37:00,60.6,45.8,30.19,NW,316,0.0,0.0,58,0.00,,SKC,0.12,VWS V13.01,2013-09-05 14:37:00,
2013-09-05 10:42:00,60.8,46.8,30.19,NNW,338,0.0,0.0,60,0.00,,SKC,0.12,VWS V13.01,2013-09-05 14:42:00,
2013-09-05 10:47:00,60.9,47.4,30.19,West,271,2.4,2.4,61,0.00,,SKC,0.12,VWS V13.01,2013-09-05 14:47:00,
2013-09-05 10:52:00,61.1,46.7,30.19,NW,316,5.3,5.3,59,0.00,,SKC,0.12,VWS V13.01,2013-09-05 14:52:00,
2013-09-05 10:57:00,61.1,45.8,30.19,NNE,24,0.0,0.0,57,0.00,,SKC,0.12,VWS V13.01,2013-09-05 14:57:00,
2013-09-05 11:02:00,61.3,46.4,30.19,NNW,338,0.6,0.6,58,0.00,,SKC,0.12,VWS V13.01,2013-09-05 15:02:00,
2013-09-05 11:07:00,61.3,45.0,30.19,WNW,294,3.1,3.1,55,0.00,,SKC,0.12,VWS V13.01,2013-09-05 15:07:00,
2013-09-05 11:12:00,61.3,45.0,30.19,NW,316,1.3,2.6,55,0.00,,SKC,0.12,VWS V13.01,2013-09-05 15:12:00,
2013-09-05 11:17:00,61.5,45.7,30.19,NW,316,0.0,0.0,56,0.00,,SKC,0.12,VWS V13.01,2013-09-05 15:17:00,
2013-09-05 11:22:00,61.7,44.4,30.19,NW,316,1.5,4.2,53,0.00,,SKC,0.12,VWS V13.01,2013-09-05 15:22:00,
2013-09-05 11:27:00,61.8,44.5,30.19,North,1,0.0,2.6,53,0.00,,SKC,0.12,VWS V13.01,2013-09-05 15:27:00,
2013-09-05 11:32:00,62.2,44.4,30.19,West,271,3.8,3.8,52,0.00,,SKC,0.12,VWS V13.01,2013-09-05 15:32:00,
2013-09-05 11:37:00,62.2,45.4,30.19,WNW,294,0.0,0.0,54,0.00,,SKC,0.12,VWS V13.01,2013-09-05 15:37:00,
2013-09-05 11:42:00,62.2,44.9,30.19,NW,316,0.0,0.0,53,0.00,,SKC,0.12,VWS V13.01,2013-09-05 15:42:00,
2013-09-05 11:47:00,62.4,46.0,30.19,WSW,248,0.0,0.0,55,0.00,,SKC,0.12,VWS V13.01,2013-09-05 15:47:00,
2013-09-05 11:52:00,62.7,45.3,30.19,North,1,2.0,3.1,53,0.00,,SKC,0.00,VWS V13.01,2013-09-05 15:52:00,
2013-09-05 11:57:00,62.9,45.5,30.19,North,1,0.4,0.4,53,0.00,,SKC,0.00,VWS V13.01,2013-09-05 15:57:00,
2013-09-05 12:02:00,62.7,44.8,30.19,WNW,294,6.0,6.0,52,0.00,,SKC,0.00,VWS V13.01,2013-09-05 16:02:00,
2013-09-05 12:07:00,63.1,45.7,30.19,ENE,68,0.0,0.0,53,0.00,,SKC,0.00,VWS V13.01,2013-09-05 16:07:00,
2013-09-05 12:12:00,63.6,46.2,30.19,NNW,338,4.6,4.6,53,0.00,,SKC,0.00,VWS V13.01,2013-09-05 16:12:00,
2013-09-05 12:17:00,64.0,46.0,30.19,ENE,68,1.3,1.3,52,0.00,,SKC,0.00,VWS V13.01,2013-09-05 16:17:00,
2013-09-05 12:22:00,64.2,45.7,30.19,NW,316,4.6,4.6,51,0.00,,SKC,0.00,VWS V13.01,2013-09-05 16:22:00,
2013-09-05 12:27:00,64.4,46.4,30.19,NW,316,3.1,3.1,52,0.00,,SKC,0.00,VWS V13.01,2013-09-05 16:27:00,
2013-09-05 12:32:00,64.2,45.7,30.19,NW,316,0.0,0.0,51,0.00,,SKC,0.00,VWS V13.01,2013-09-05 16:32:00,
2013-09-05 12:37:00,63.3,44.9,30.19,North,1,1.5,1.5,51,0.00,,SKC,0.00,VWS V13.01,2013-09-05 16:37:00,
2013-09-05 12:42:00,62.7,44.8,30.19,NW,316,0.6,0.6,52,0.00,,SKC,0.00,VWS V13.01,2013-09-05 16:42:00,
2013-09-05 12:47:00,62.7,44.8,30.19,North,1,0.0,0.0,52,0.00,,SKC,0.00,VWS V13.01,2013-09-05 16:47:00,
2013-09-05 12:52:00,62.9,46.0,30.19,NNW,338,0.8,0.8,54,0.00,,SKC,0.00,VWS V13.01,2013-09-05 16:52:00,
2013-09-05 12:57:00,63.3,46.4,30.19,NNE,24,0.0,0.0,54,0.00,,SKC,0.00,VWS V13.01,2013-09-05 16:57:00,
2013-09-05 13:02:00,63.6,46.2,30.19,NNW,338,0.0,0.0,53,0.00,,SKC,0.00,VWS V13.01,2013-09-05 17:02:00,
2013-09-05 13:07:00,64.2,47.2,30.19,NW,316,0.6,0.6,54,0.00,,SKC,0.00,VWS V13.01,2013-09-05 17:07:00,
2013-09-05 13:12:00,64.0,46.0,30.20,NW,316,0.0,0.0,52,0.00,,SKC,0.00,VWS V13.01,2013-09-05 17:12:00,
2013-09-05 13:17:00,63.6,46.7,30.20,NW,316,0.0,0.0,54,0.00,,SKC,0.00,VWS V13.01,2013-09-05 17:17:00,
2013-09-05 13:22:00,63.1,46.2,30.19,NNW,338,0.0,0.0,54,0.00,,SKC,0.00,VWS V13.01,2013-09-05 17:22:00,
2013-09-05 13:27:00,62.7,44.8,30.19,NW,316,2.4,2.4,52,0.00,,SKC,0.00,VWS V13.01,2013-09-05 17:27:00,
2013-09-05 13:32:00,62.4,44.6,30.19,NW,316,2.9,2.9,52,0.00,,SKC,0.00,VWS V13.01,2013-09-05 17:32:00,
2013-09-05 13:37:00,62.7,45.3,30.19,West,271,0.0,6.4,53,0.00,,SKC,0.00,VWS V13.01,2013-09-05 17:37:00,
2013-09-05 13:42:00,63.3,46.4,30.19,NW,316,0.4,0.4,54,0.00,,SKC,0.00,VWS V13.01,2013-09-05 17:42:00,
2013-09-05 13:47:00,63.6,46.7,30.19,NW,316,0.6,0.6,54,0.00,,SKC,0.00,VWS V13.01,2013-09-05 17:47:00,
2013-09-05 13:52:00,64.2,45.7,30.20,North,1,5.3,5.3,51,0.00,,SKC,0.00,VWS V13.01,2013-09-05 17:52:00,
2013-09-05 13:57:00,64.0,45.0,30.20,West,271,0.8,0.8,50,0.00,,SKC,0.00,VWS V13.01,2013-09-05 17:57:00,
2013-09-05 14:02:00,63.6,44.6,30.20,NNW,338,4.6,4.6,50,0.00,,SKC,0.00,VWS V13.01,2013-09-05 18:02:00,
2013-09-05 14:07:00,63.5,45.6,30.20,NNW,338,2.9,2.9,52,0.00,,SKC,0.00,VWS V13.01,2013-09-05 18:07:00,
2013-09-05 14:12:00,63.6,45.7,30.20,WNW,294,4.4,4.4,52,0.00,,SKC,0.00,VWS V13.01,2013-09-05 18:12:00,
2013-09-05 14:17:00,63.6,44.6,30.20,NNW,338,5.5,5.5,50,0.00,,SKC,0.00,VWS V13.01,2013-09-05 18:17:00,
2013-09-05 14:22:00,63.3,43.8,30.20,West,271,2.2,2.2,49,0.00,,SKC,0.00,VWS V13.01,2013-09-05 18:22:00,
2013-09-05 14:27:00,63.1,43.7,30.20,WNW,294,0.0,0.0,49,0.00,,SKC,0.00,VWS V13.01,2013-09-05 18:27:00,
2013-09-05 14:32:00,63.5,44.0,30.20,NW,316,0.0,0.0,49,0.00,,SKC,0.00,VWS V13.01,2013-09-05 18:32:00,
2013-09-05 14:37:00,64.0,44.5,30.20,NNE,24,0.0,4.9,49,0.00,,SKC,0.00,VWS V13.01,2013-09-05 18:37:00,
2013-09-05 14:42:00,64.2,44.7,30.19,NW,316,2.6,2.6,49,0.00,,SKC,0.00,VWS V13.01,2013-09-05 18:42:00,
2013-09-05 14:47:00,64.2,43.6,30.19,NNW,338,0.0,0.0,47,0.00,,SKC,0.00,VWS V13.01,2013-09-05 18:47:00,
2013-09-05 14:52:00,64.0,43.9,30.19,NW,316,0.0,0.0,48,0.00,,SKC,0.00,VWS V13.01,2013-09-05 18:52:00,
2013-09-05 14:57:00,64.0,43.9,30.19,SSE,158,0.0,0.0,48,0.00,,SKC,0.00,VWS V13.01,2013-09-05 18:57:00,
2013-09-05 15:02:00,63.8,44.3,30.19,East,91,0.0,0.0,49,0.00,,SKC,0.00,VWS V13.01,2013-09-05 19:02:00,
2013-09-05 15:07:00,63.6,44.1,30.20,NNE,24,0.0,0.0,49,0.00,,SKC,0.00,VWS V13.01,2013-09-05 19:07:00,
2013-09-05 15:12:00,63.1,43.1,30.19,WNW,294,0.6,0.6,48,0.00,,SKC,0.00,VWS V13.01,2013-09-05 19:12:00,
2013-09-05 15:17:00,63.1,44.2,30.19,WSW,248,0.0,0.0,50,0.00,,SKC,0.00,VWS V13.01,2013-09-05 19:17:00,
2013-09-05 15:22:00,63.3,44.4,30.19,SW,226,0.0,0.0,50,0.00,,SKC,0.00,VWS V13.01,2013-09-05 19:22:00,
2013-09-05 15:27:00,63.3,42.8,30.19,NNW,338,0.0,0.0,47,0.00,,SKC,0.00,VWS V13.01,2013-09-05 19:27:00,
2013-09-05 15:32:00,62.9,41.8,30.19,NNW,338,3.5,3.5,46,0.00,,SKC,0.00,VWS V13.01,2013-09-05 19:32:00,
2013-09-05 15:37:00,63.1,42.6,30.19,NNW,338,1.7,1.7,47,0.00,,SKC,0.00,VWS V13.01,2013-09-05 19:37:00,
2013-09-05 15:42:00,63.3,43.3,30.19,NW,316,0.0,0.0,48,0.00,,SKC,0.00,VWS V13.01,2013-09-05 19:42:00,
2013-09-05 15:47:00,63.3,42.2,30.19,North,1,1.1,1.1,46,0.00,,SKC,0.00,VWS V13.01,2013-09-05 19:47:00,
2013-09-05 15:52:00,63.5,42.4,30.19,ENE,68,0.4,5.1,46,0.00,,SKC,0.00,VWS V13.01,2013-09-05 19:52:00,
2013-09-05 15:57:00,63.1,40.9,30.19,NNE,24,0.0,0.0,44,0.00,,SKC,0.00,VWS V13.01,2013-09-05 19:57:00,
2013-09-05 16:02:00,62.6,41.0,30.19,WNW,294,1.1,1.1,45,0.00,,SKC,0.00,VWS V13.01,2013-09-05 20:02:00,
2013-09-05 16:07:00,62.4,40.8,30.20,NE,46,0.0,0.0,45,0.00,,SKC,0.00,VWS V13.01,2013-09-05 20:07:00,
2013-09-05 16:12:00,62.6,41.5,30.20,NNW,338,3.3,3.3,46,0.00,,SKC,0.00,VWS V13.01,2013-09-05 20:12:00,
2013-09-05 16:17:00,62.7,41.6,30.20,NNW,338,0.0,0.0,46,0.00,,SKC,0.00,VWS V13.01,2013-09-05 20:17:00,
2013-09-05 16:22:00,63.1,41.4,30.20,NW,316,0.0,0.8,45,0.00,,SKC,0.00,VWS V13.01,2013-09-05 20:22:00,
2013-09-05 16:27:00,63.3,42.8,30.20,NNW,338,0.0,0.0,47,0.00,,SKC,0.00,VWS V13.01,2013-09-05 20:27:00,
2013-09-05 16:32:00,63.3,41.6,30.20,NW,316,0.0,0.0,45,0.00,,SKC,0.00,VWS V13.01,2013-09-05 20:32:00,
2013-09-05 16:37:00,63.5,42.4,30.20,NNE,24,0.6,1.3,46,0.00,,SKC,0.00,VWS V13.01,2013-09-05 20:37:00,
2013-09-05 16:42:00,63.3,41.0,30.20,NW,316,2.9,2.9,44,0.00,,SKC,0.00,VWS V13.01,2013-09-05 20:42:00,
2013-09-05 16:47:00,63.3,41.6,30.20,WNW,294,0.0,0.0,45,0.00,,SKC,0.00,VWS V13.01,2013-09-05 20:47:00,
2013-09-05 16:52:00,63.1,41.4,30.20,NW,316,0.0,4.6,45,0.00,,SKC,0.00,VWS V13.01,2013-09-05 20:52:00,
2013-09-05 16:57:00,63.1,40.3,30.20,NW,316,2.0,2.0,43,0.00,,SKC,0.00,VWS V13.01,2013-09-05 20:57:00,
2013-09-05 17:02:00,62.9,40.7,30.21,North,1,0.0,0.0,44,0.00,,SKC,0.00,VWS V13.01,2013-09-05 21:02:00,
2013-09-05 17:07:00,63.1,40.9,30.21,NW,316,1.3,1.3,44,0.00,,SKC,0.00,VWS V13.01,2013-09-05 21:07:00,
2013-09-05 17:12:00,63.1,41.4,30.21,NW,316,1.3,1.3,45,0.00,,SKC,0.00,VWS V13.01,2013-09-05 21:12:00,
2013-09-05 17:17:00,63.1,40.9,30.21,North,1,2.0,2.0,44,0.00,,SKC,0.00,VWS V13.01,2013-09-05 21:17:00,
2013-09-05 17:22:00,62.9,41.3,30.21,NNW,338,0.6,0.8,45,0.00,,SKC,0.00,VWS V13.01,2013-09-05 21:22:00,
2013-09-05 17:27:00,62.7,40.5,30.21,West,271,5.1,5.1,44,0.00,,SKC,0.00,VWS V13.01,2013-09-05 21:27:00,
2013-09-05 17:32:00,62.7,41.1,30.22,NNE,24,0.8,0.8,45,0.00,,SKC,0.00,VWS V13.01,2013-09-05 21:32:00,
2013-09-05 17:37:00,62.7,41.1,30.22,NNW,338,0.0,0.0,45,0.00,,SKC,0.00,VWS V13.01,2013-09-05 21:37:00,
2013-09-05 17:42:00,62.4,40.8,30.22,NNW,338,0.0,0.0,45,0.00,,SKC,0.00,VWS V13.01,2013-09-05 21:42:00,
2013-09-05 17:47:00,62.4,40.8,30.22,NNW,338,1.7,1.7,45,0.00,,SKC,0.00,VWS V13.01,2013-09-05 21:47:00,
2013-09-05 17:52:00,62.0,40.4,30.22,NNW,338,1.1,1.1,45,0.00,,SKC,0.00,VWS V13.01,2013-09-05 21:52:00,
2013-09-05 17:57:00,61.8,40.3,30.22,NNE,24,1.5,1.5,45,0.00,,SKC,0.00,VWS V13.01,2013-09-05 21:57:00,
2013-09-05 18:02:00,61.5,40.0,30.22,NNE,24,0.8,0.8,45,0.00,,SKC,0.00,VWS V13.01,2013-09-05 22:02:00,
2013-09-05 18:07:00,61.5,40.5,30.23,North,1,5.3,5.3,46,0.00,,SKC,0.00,VWS V13.01,2013-09-05 22:07:00,
2013-09-05 18:12:00,61.3,40.9,30.23,WNW,294,0.0,0.0,47,0.00,,SKC,0.00,VWS V13.01,2013-09-05 22:12:00,
2013-09-05 18:17:00,60.9,40.0,30.23,NW,316,0.0,0.0,46,0.00,,SKC,0.00,VWS V13.01,2013-09-05 22:17:00,
2013-09-05 18:22:00,60.6,40.3,30.23,NW,316,0.0,0.0,47,0.00,,SKC,0.00,VWS V13.01,2013-09-05 22:22:00,
2013-09-05 18:27:00,60.4,40.1,30.23,NNW,338,0.0,0.0,47,0.00,,SKC,0.00,VWS V13.01,2013-09-05 22:27:00,
2013-09-05 18:32:00,60.4,40.6,30.23,ENE,68,0.0,0.0,48,0.00,,SKC,0.00,VWS V13.01,2013-09-05 22:32:00,
2013-09-05 18:37:00,60.0,40.3,30.23,North,1,0.6,0.6,48,0.00,,SKC,0.00,VWS V13.01,2013-09-05 22:37:00,
2013-09-05 18:42:00,59.9,40.7,30.24,North,1,0.0,0.0,49,0.00,,SKC,0.00,VWS V13.01,2013-09-05 22:42:00,
2013-09-05 18:47:00,59.5,40.3,30.24,North,1,0.0,0.0,49,0.00,,SKC,0.00,VWS V13.01,2013-09-05 22:47:00,
2013-09-05 18:52:00,59.1,40.0,30.24,East,91,0.0,0.0,49,0.00,,SKC,0.00,VWS V13.01,2013-09-05 22:52:00,
2013-09-05 18:57:00,58.8,39.7,30.24,NE,46,0.0,0.0,49,0.00,,SKC,0.00,VWS V13.01,2013-09-05 22:57:00,
2013-09-05 19:02:00,58.8,40.2,30.24,NW,316,0.0,0.0,50,0.00,,SKC,0.00,VWS V13.01,2013-09-05 23:02:00,
2013-09-05 19:07:00,58.6,39.5,30.24,NW,316,0.0,0.0,49,0.00,,SKC,0.00,VWS V13.01,2013-09-05 23:07:00,
2013-09-05 19:12:00,58.2,39.7,30.24,West,271,0.0,0.0,50,0.00,,SKC,0.00,VWS V13.01,2013-09-05 23:12:00,
2013-09-05 19:17:00,57.9,39.4,30.25,WSW,248,0.0,0.0,50,0.00,,SKC,0.00,VWS V13.01,2013-09-05 23:17:00,
2013-09-05 19:22:00,57.7,39.2,30.25,SSE,158,0.0,0.0,50,0.00,,SKC,0.00,VWS V13.01,2013-09-05 23:22:00,
2013-09-05 19:27:00,57.3,38.8,30.25,WNW,294,0.0,0.0,50,0.00,,SKC,0.00,VWS V13.01,2013-09-05 23:27:00,
2013-09-05 19:32:00,57.0,38.6,30.25,NNE,24,1.3,1.3,50,0.00,,SKC,0.00,VWS V13.01,2013-09-05 23:32:00,
2013-09-05 19:37:00,57.0,38.6,30.26,NNE,24,0.0,0.0,50,0.00,,SKC,0.00,VWS V13.01,2013-09-05 23:37:00,
2013-09-05 19:42:00,56.6,38.7,30.26,NNW,338,0.0,0.0,51,0.00,,SKC,0.00,VWS V13.01,2013-09-05 23:42:00,
2013-09-05 19:47:00,56.3,38.4,30.27,NNW,338,0.0,0.0,51,0.00,,SKC,0.00,VWS V13.01,2013-09-05 23:47:00,
2013-09-05 19:52:00,56.1,38.2,30.27,NNW,338,0.0,2.0,51,0.00,,SKC,0.00,VWS V13.01,2013-09-05 23:52:00,
2013-09-05 19:57:00,55.9,38.5,30.27,NNW,338,0.0,0.0,52,0.00,,SKC,0.00,VWS V13.01,2013-09-05 23:57:00,
2013-09-05 20:02:00,55.9,38.5,30.27,NW,316,0.0,0.0,52,0.00,,SKC,0.00,VWS V13.01,2013-09-06 00:02:00,
2013-09-05 20:07:00,55.5,38.2,30.27,NW,316,0.0,0.0,52,0.00,,SKC,0.00,VWS V13.01,2013-09-06 00:07:00,
2013-09-05 20:12:00,55.4,38.1,30.27,NW,316,0.0,0.0,52,0.00,,SKC,0.00,VWS V13.01,2013-09-06 00:12:00,
2013-09-05 20:17:00,55.2,38.4,30.28,NW,316,0.0,0.0,53,0.00,,SKC,0.00,VWS V13.01,2013-09-06 00:17:00,
2013-09-05 20:22:00,55.0,38.2,30.28,NW,316,0.0,0.0,53,0.00,,SKC,0.00,VWS V13.01,2013-09-06 00:22:00,
2013-09-05 20:27:00,54.8,38.5,30.28,NW,316,0.0,0.0,54,0.00,,SKC,0.00,VWS V13.01,2013-09-06 00:27:00,
2013-09-05 20:32:00,54.6,38.3,30.28,NW,316,0.0,0.0,54,0.00,,SKC,0.00,VWS V13.01,2013-09-06 00:32:00,
2013-09-05 20:37:00,54.1,38.3,30.28,NW,316,0.0,0.0,55,0.00,,SKC,0.00,VWS V13.01,2013-09-06 00:37:00,
2013-09-05 20:42:00,53.9,38.6,30.29,NW,316,0.0,0.0,56,0.00,,SKC,0.00,VWS V13.01,2013-09-06 00:42:00,
2013-09-05 20:47:00,53.7,38.4,30.29,NW,316,0.0,0.0,56,0.00,,SKC,0.00,VWS V13.01,2013-09-06 00:47:00,
2013-09-05 20:52:00,53.4,38.6,30.29,NW,316,0.0,0.0,57,0.00,,SKC,0.00,VWS V13.01,2013-09-06 00:52:00,
2013-09-05 20:57:00,53.2,38.4,30.29,NW,316,0.0,0.0,57,0.00,,SKC,0.00,VWS V13.01,2013-09-06 00:57:00,
2013-09-05 21:02:00,53.2,38.8,30.29,NW,316,0.0,0.0,58,0.00,,SKC,0.00,VWS V13.01,2013-09-06 01:02:00,
2013-09-05 21:07:00,52.8,38.5,30.29,NW,316,0.0,0.0,58,0.00,,SKC,0.00,VWS V13.01,2013-09-06 01:07:00,
2013-09-05 21:12:00,52.8,38.9,30.30,NW,316,0.0,0.0,59,0.00,,SKC,0.00,VWS V13.01,2013-09-06 01:12:00,
2013-09-05 21:17:00,52.3,38.8,30.30,NW,316,0.0,0.0,60,0.00,,SKC,0.00,VWS V13.01,2013-09-06 01:17:00,
2013-09-05 21:22:00,52.1,39.1,30.30,NW,316,0.0,0.0,61,0.00,,SKC,0.00,VWS V13.01,2013-09-06 01:22:00,
2013-09-05 21:27:00,51.8,39.2,30.30,NW,316,0.0,0.0,62,0.00,,SKC,0.00,VWS V13.01,2013-09-06 01:27:00,
2013-09-05 21:32:00,51.4,38.8,30.30,NW,316,0.0,0.0,62,0.00,,SKC,0.00,VWS V13.01,2013-09-06 01:32:00,
2013-09-05 21:37:00,51.0,38.9,30.31,NW,316,0.0,0.0,63,0.00,,SKC,0.00,VWS V13.01,2013-09-06 01:37:00,
2013-09-05 21:42:00,50.7,39.0,30.30,NW,316,0.0,0.0,64,0.00,,SKC,0.00,VWS V13.01,2013-09-06 01:42:00,
2013-09-05 21:47:00,50.5,39.2,30.31,NW,316,0.0,0.0,65,0.00,,SKC,0.00,VWS V13.01,2013-09-06 01:47:00,
2013-09-05 21:52:00,50.1,38.8,30.31,NW,316,0.0,0.0,65,0.00,,SKC,0.00,VWS V13.01,2013-09-06 01:52:00,
2013-09-05 21:57:00,49.8,38.9,30.31,NW,316,0.0,0.0,66,0.00,,SKC,0.00,VWS V13.01,2013-09-06 01:57:00,
2013-09-05 22:02:00,49.8,39.3,30.31,NW,316,0.0,0.0,67,0.00,,SKC,0.00,VWS V13.01,2013-09-06 02:02:00,
2013-09-05 22:07:00,49.4,38.9,30.31,NW,316,0.0,0.0,67,0.00,,SKC,0.00,VWS V13.01,2013-09-06 02:07:00,
2013-09-05 22:12:00,49.2,39.1,30.31,NW,316,0.0,0.0,68,0.00,,SKC,0.00,VWS V13.01,2013-09-06 02:12:00,
2013-09-05 22:17:00,49.1,39.0,30.31,NW,316,0.0,0.0,68,0.00,,SKC,0.00,VWS V13.01,2013-09-06 02:17:00,
2013-09-05 22:22:00,48.7,38.6,30.32,NW,316,0.0,0.0,68,0.00,,SKC,0.00,VWS V13.01,2013-09-06 02:22:00,
2013-09-05 22:27:00,48.5,38.8,30.31,NW,316,0.0,0.0,69,0.00,,SKC,0.00,VWS V13.01,2013-09-06 02:27:00,
2013-09-05 22:32:00,48.2,38.9,30.32,NW,316,0.0,0.0,70,0.00,,SKC,0.00,VWS V13.01,2013-09-06 02:32:00,
2013-09-05 22:37:00,48.0,38.7,30.32,NW,316,0.0,0.0,70,0.00,,SKC,0.00,VWS V13.01,2013-09-06 02:37:00,
2013-09-05 22:42:00,47.8,38.9,30.32,WNW,294,0.0,0.0,71,0.00,,SKC,0.00,VWS V13.01,2013-09-06 02:42:00,
2013-09-05 22:47:00,47.6,38.7,30.32,WNW,294,0.0,0.0,71,0.00,,SKC,0.00,VWS V13.01,2013-09-06 02:47:00,
2013-09-05 22:52:00,47.3,38.7,30.32,WNW,294,0.0,0.0,72,0.00,,SKC,0.00,VWS V13.01,2013-09-06 02:52:00,
2013-09-05 22:57:00,47.1,38.5,30.31,WNW,294,0.0,0.0,72,0.00,,SKC,0.00,VWS V13.01,2013-09-06 02:57:00,
2013-09-05 23:02:00,46.9,38.4,30.31,WNW,294,0.0,0.0,72,0.00,,SKC,0.00,VWS V13.01,2013-09-06 03:02:00,
2013-09-05 23:07:00,46.5,38.3,30.31,WNW,294,0.0,0.0,73,0.00,,SKC,0.00,VWS V13.01,2013-09-06 03:07:00,
2013-09-05 23:12:00,46.4,38.6,30.32,WNW,294,0.0,0.0,74,0.00,,SKC,0.00,VWS V13.01,2013-09-06 03:12:00,
2013-09-05 23:17:00,46.2,38.7,30.32,WNW,294,0.0,0.0,75,0.00,,SKC,0.00,VWS V13.01,2013-09-06 03:17:00,
2013-09-05 23:22:00,46.0,38.9,30.32,WNW,294,0.0,0.0,76,0.00,,SKC,0.00,VWS V13.01,2013-09-06 03:22:00,
2013-09-05 23:27:00,45.8,38.7,30.32,WNW,294,0.0,0.0,76,0.00,,SKC,0.00,VWS V13.01,2013-09-06 03:27:00,
2013-09-05 23:32:00,45.6,38.5,30.32,WNW,294,0.0,0.0,76,0.00,,SKC,0.00,VWS V13.01,2013-09-06 03:32:00,
2013-09-05 23:37:00,45.5,38.4,30.32,WNW,294,0.0,0.0,76,0.00,,SKC,0.00,VWS V13.01,2013-09-06 03:37:00,
2013-09-05 23:42:00,45.5,38.7,30.32,WNW,294,0.0,0.0,77,0.00,,SKC,0.00,VWS V13.01,2013-09-06 03:42:00,
2013-09-05 23:47:00,45.3,38.5,30.32,WNW,294,0.0,0.0,77,0.00,,SKC,0.00,VWS V13.01,2013-09-06 03:47:00,
2013-09-05 23:52:00,45.1,38.3,30.32,WNW,294,0.0,0.0,77,0.00,,SKC,0.00,VWS V13.01,2013-09-06 03:52:00,
2013-09-05 23:57:00,44.9,38.5,30.32,WNW,294,0.0,0.0,78,0.00,,SKC,0.00,VWS V13.01,2013-09-06 03:57:00,